Regional Weather Roundup
Issued by NWS

Home | Current Version | Previous Version | Graphics & Text | Print | Product List | Glossary On
Versions: 1 2 3 4 5 6 7 8 9 10 11 12 13 14 15 16 17 18 19 20 21 22 23 24 25 26 27 28 29 30 31 32 33 34 35 36 37 38 39 40 41 42 43 44 45 46 47 48 49 50
000
ASUS44 KMEG 241500
RWRTN
TENNESSEE HOURLY STATE WEATHER ROUNDUP
NATIONAL WEATHER SERVICE MEMPHIS TN
1000 AM CDT SUN JUL 24 2016

TNZ002-004-019-021-049-052-054-088>092-241600-
WEST TENNESSEE

CITY           SKY/WX    TMP DP  RH WIND       PRES   REMARKS
MEMPHIS INTL   CLOUDY    82  74  76 S9        30.00S
NWS MEMPHIS      N/A     79 N/A N/A MISG        N/A
JACKSON        MOSUNNY   85  76  74 S6        30.01F HX  94
DYERSBURG      MOSUNNY   84  75  74 MISG      30.00S HX  92
PARIS          PTSUNNY   82  75  78 SW6       30.03R
$$

TNZ008-025-027-028-033-062-065-066-241600-
NORTH MIDDLE TENNESSEE

CITY           SKY/WX    TMP DP  RH WIND       PRES   REMARKS
NASHVILLE      MOSUNNY   87  71  58 W5        30.04S HX  93
CLARKSVILLE    MOSUNNY   83  75  77 SW8       30.02S HX  90
CROSSVILLE     CLOUDY    81  71  71 CALM      30.12S
$$

TNZ061-075-076-078-094-096-097-241600-
SOUTH MIDDLE TENNESSEE

CITY           SKY/WX    TMP DP  RH WIND       PRES   REMARKS
WINCHESTER     SUNNY     84  73  70 E5        30.07S HX  91
MCMINNVILLE    SUNNY     84  75  74 VRB5      30.07S HX  92
COLUMBIA       SUNNY     90  81  74 S8        30.03S HX 108
$$

TNZ017-018-042-046-047-241600-
NORTHEAST TENNESSEE

CITY           SKY/WX    TMP DP  RH WIND       PRES   REMARKS
TRI CITIES     PTSUNNY   84  68  58 VRB3      30.10F
$$

TNZ012-013-036-069-073-074-241600-
CENTRAL EAST TENNESSEE

CITY           SKY/WX    TMP DP  RH WIND       PRES   REMARKS
KNOXVILLE      CLOUDY    83  70  64 SW3       30.07S
OAK RIDGE      CLOUDY    82  71  69 W5        30.09S
$$

TNZ083-085-099-241600-
SOUTHEAST TENNESSEE

CITY           SKY/WX    TMP DP  RH WIND       PRES   REMARKS
CHATTANOOGA    PTSUNNY   85  69  58 W5        30.07F
$$

SKY/WX REPORTED AS FAIR MEANS FEW OR NO CLOUDS BELOW
12 THOUSAND FEET.




USA.gov is the U.S. government's official web portal to all federal, state and local government web resources and services.